When you browse on this site, cookies collect data to enhance your experience and personalize the content and advertising you see.
Visit our Privacy Policy to learn more. By continuing to use the site, you agree to this use of cookies and data.
  • In Schweiz
  • Länderverzeichnis
  • Für 7 Tage
  • Wassertemperatur
  • Satellitenkarten
  • Wetterkarte
  • Widgets
  • user-avatar
    Anmelden

    Stündliche Wetter Malanje

    Heute, 21 Januar, Montag

    Zeit Temperatur Niederschläge Wind Luftdruck Luftfeuchtigkeit
    00:00 +20°C° 0.7 mm 1 m/S 666 mmHg 97%
    01:00 +20°C° 0 mm 1 m/S 666 mmHg 98%
    02:00 +20°C° 0.9 mm 1 m/S 666 mmHg 98%
    03:00 +20°C° 0.9 mm 1 m/S 666 mmHg 98%
    04:00 +20°C° 0.9 mm 1 m/S 666 mmHg 98%
    05:00 +20°C° 0.5 mm 1 m/S 666 mmHg 98%
    06:00 +20°C° 0.5 mm 1 m/S 666 mmHg 98%
    07:00 +20°C° 0 mm 1 m/S 667 mmHg 98%
    08:00 +20°C° 0.3 mm 1 m/S 667 mmHg 97%
    09:00 +20°C° 0.3 mm 1 m/S 667 mmHg 96%
    10:00 +21°C° 0.3 mm 1 m/S 667 mmHg 95%
    11:00 +22°C° 0 mm 1 m/S 666 mmHg 88%
    12:00 +23°C° 0 mm 2 m/S 666 mmHg 82%
    13:00 +25°C° 0 mm 2 m/S 667 mmHg 66%
    14:00 +26°C° 0 mm 2 m/S 666 mmHg 67%
    15:00 +26°C° 0 mm 2 m/S 666 mmHg 68%
    16:00 +26°C° 0 mm 2 m/S 665 mmHg 69%
    17:00 +25°C° 0.5 mm 2 m/S 665 mmHg 77%
    18:00 +23°C° 0.5 mm 2 m/S 665 mmHg 85%
    19:00 +21°C° 0.5 mm 1 m/S 665 mmHg 93%
    20:00 +21°C° 0.1 mm 1 m/S 665 mmHg 94%
    21:00 +20°C° 0.1 mm 1 m/S 666 mmHg 95%
    22:00 +20°C° 0.1 mm 1 m/S 666 mmHg 96%
    23:00 +20°C° 0.3 mm 1 m/S 666 mmHg 96%

    Morgen, 22 Januar, Dienstag

    Zeit Temperatur Niederschläge Wind Luftdruck Luftfeuchtigkeit
    00:00 +20°C° 0.3 mm 1 m/S 666 mmHg 96%
    01:00 +20°C° 0.3 mm 1 m/S 666 mmHg 96%
    02:00 +20°C° 0.3 mm 1 m/S 665 mmHg 97%
    03:00 +20°C° 0.3 mm 1 m/S 665 mmHg 97%
    04:00 +20°C° 0.3 mm 1 m/S 665 mmHg 98%
    05:00 +20°C° 0.1 mm 1 m/S 665 mmHg 98%
    06:00 +20°C° 0.1 mm 1 m/S 666 mmHg 98%
    07:00 +21°C° 0.1 mm 1 m/S 666 mmHg 98%
    08:00 +20°C° 0.1 mm 2 m/S 666 mmHg 95%
    09:00 +21°C° 0.1 mm 2 m/S 667 mmHg 93%
    10:00 +23°C° 0.1 mm 2 m/S 667 mmHg 91%
    11:00 +24°C° 0.2 mm 2 m/S 666 mmHg 85%
    12:00 +25°C° 0.2 mm 3 m/S 666 mmHg 79%
    13:00 +27°C° 0.2 mm 3 m/S 666 mmHg 73%
    14:00 +26°C° 1 mm 3 m/S 665 mmHg 77%
    15:00 +26°C° 1 mm 3 m/S 664 mmHg 82%
    16:00 +25°C° 1 mm 3 m/S 664 mmHg 86%
    17:00 +24°C° 0.8 mm 3 m/S 664 mmHg 89%
    18:00 +21°C° 0.8 mm 3 m/S 664 mmHg 92%
    19:00 +20°C° 0.8 mm 2 m/S 664 mmHg 96%
    20:00 +20°C° 0 mm 3 m/S 665 mmHg 96%
    21:00 +20°C° 0 mm 3 m/S 665 mmHg 96%
    22:00 +19°C° 0 mm 3 m/S 666 mmHg 97%
    23:00 +19°C° 0.4 mm 3 m/S 665 mmHg 97%

    übermorgen, 23 Januar, Mittwoch

    Zeit Temperatur Niederschläge Wind Luftdruck Luftfeuchtigkeit
    00:00 +19°C° 0.4 mm 3 m/S 665 mmHg 97%
    01:00 +19°C° 0.4 mm 3 m/S 665 mmHg 97%
    02:00 +19°C° 0.2 mm 3 m/S 665 mmHg 97%
    03:00 +18°C° 0.2 mm 2 m/S 664 mmHg 97%
    04:00 +18°C° 0.2 mm 2 m/S 664 mmHg 97%
    05:00 +18°C° 0.9 mm 2 m/S 665 mmHg 98%
    06:00 +19°C° 0.9 mm 2 m/S 665 mmHg 98%
    07:00 +19°C° 0.9 mm 2 m/S 665 mmHg 98%
    08:00 +19°C° 1.7 mm 2 m/S 666 mmHg 98%
    09:00 +19°C° 1.7 mm 3 m/S 666 mmHg 97%
    10:00 +19°C° 1.7 mm 3 m/S 666 mmHg 97%
    11:00 +19°C° 1.4 mm 3 m/S 666 mmHg 97%
    12:00 +20°C° 1.4 mm 3 m/S 665 mmHg 97%
    13:00 +20°C° 1.4 mm 3 m/S 665 mmHg 97%
    14:00 +20°C° 0.2 mm 3 m/S 664 mmHg 95%
    15:00 +20°C° 0.2 mm 3 m/S 664 mmHg 94%
    16:00 +20°C° 0.2 mm 3 m/S 663 mmHg 93%
    17:00 +20°C° 0 mm 2 m/S 663 mmHg 94%
    18:00 +20°C° 0 mm 2 m/S 664 mmHg 94%
    19:00 +20°C° 0 mm 1 m/S 664 mmHg 94%
    20:00 +20°C° 0 mm 1 m/S 664 mmHg 95%
    21:00 +19°C° 0 mm 1 m/S 665 mmHg 97%
    22:00 +19°C° 0 mm 1 m/S 665 mmHg 98%
    23:00 +19°C° 0 mm 1 m/S 665 mmHg 98%

    24 Januar, Donnerstag

    Zeit Temperatur Niederschläge Wind Luftdruck Luftfeuchtigkeit
    00:00 +19°C° 0 mm 1 m/S 664 mmHg 98%
    01:00 +18°C° 0 mm 1 m/S 664 mmHg 98%
    02:00 +18°C° 0 mm 1 m/S 664 mmHg 98%
    03:00 +18°C° 0 mm 1 m/S 663 mmHg 98%
    04:00 +18°C° 0 mm 1 m/S 663 mmHg 99%
    05:00 +18°C° 0 mm 1 m/S 663 mmHg 98%
    06:00 +19°C° 0 mm 1 m/S 664 mmHg 97%
    07:00 +19°C° 0 mm 1 m/S 664 mmHg 96%
    08:00 +21°C° 0 mm 1 m/S 665 mmHg 89%
    09:00 +23°C° 0 mm 1 m/S 665 mmHg 82%
    10:00 +25°C° 0 mm 2 m/S 666 mmHg 74%
    11:00 +26°C° 1 mm 2 m/S 665 mmHg 75%
    12:00 +26°C° 1 mm 2 m/S 665 mmHg 77%
    13:00 +27°C° 1 mm 2 m/S 664 mmHg 78%
    14:00 +27°C° 0.9 mm 2 m/S 663 mmHg 80%
    15:00 +26°C° 0.9 mm 2 m/S 663 mmHg 83%
    16:00 +26°C° 0.9 mm 2 m/S 662 mmHg 85%
    17:00 +25°C° 1.8 mm 2 m/S 663 mmHg 88%
    18:00 +23°C° 1.8 mm 2 m/S 663 mmHg 90%
    19:00 +22°C° 1.8 mm 1 m/S 663 mmHg 93%
    20:00 +21°C° 0.5 mm 1 m/S 663 mmHg 94%
    21:00 +21°C° 0.5 mm 1 m/S 664 mmHg 95%
    22:00 +21°C° 0.5 mm 1 m/S 664 mmHg 96%
    23:00 +21°C° 0.1 mm 1 m/S 664 mmHg 96%

    25 Januar, Freitag

    Zeit Temperatur Niederschläge Wind Luftdruck Luftfeuchtigkeit
    00:00 +21°C° 0.1 mm 1 m/S 664 mmHg 97%
    01:00 +20°C° 0.1 mm 1 m/S 664 mmHg 98%
    02:00 +20°C° 0.6 mm 1 m/S 664 mmHg 98%
    03:00 +20°C° 0.6 mm 1 m/S 664 mmHg 98%
    04:00 +20°C° 0.6 mm 1 m/S 664 mmHg 99%
    05:00 +20°C° 0.3 mm 1 m/S 664 mmHg 98%
    06:00 +19°C° 0.3 mm 0 m/S 665 mmHg 98%
    07:00 +19°C° 0.3 mm 0 m/S 665 mmHg 98%
    08:00 +20°C° 0.1 mm 0 m/S 666 mmHg 96%
    09:00 +20°C° 0.1 mm 0 m/S 666 mmHg 94%
    10:00 +21°C° 0.1 mm 0 m/S 666 mmHg 92%
    11:00 +25°C° 0 mm 1 m/S 666 mmHg 82%
    12:00 +27°C° 0 mm 1 m/S 665 mmHg 73%
    13:00 +29°C° 0 mm 1 m/S 665 mmHg 63%
    14:00 +29°C° 0 mm 1 m/S 664 mmHg 64%
    15:00 +29°C° 0 mm 1 m/S 664 mmHg 65%
    16:00 +29°C° 0 mm 2 m/S 663 mmHg 66%
    17:00 +27°C° 0.5 mm 1 m/S 663 mmHg 74%
    18:00 +25°C° 0.5 mm 1 m/S 663 mmHg 82%
    19:00 +23°C° 0.5 mm 1 m/S 664 mmHg 90%
    20:00 +22°C° 0.5 mm 1 m/S 664 mmHg 91%
    21:00 +22°C° 0.5 mm 1 m/S 665 mmHg 92%
    22:00 +21°C° 0.5 mm 1 m/S 665 mmHg 93%
    23:00 +21°C° 0 mm 1 m/S 665 mmHg 94%

    26 Januar, Samstag

    Zeit Temperatur Niederschläge Wind Luftdruck Luftfeuchtigkeit
    00:00 +21°C° 0 mm 1 m/S 664 mmHg 95%
    01:00 +20°C° 0 mm 1 m/S 664 mmHg 96%
    02:00 +20°C° 0.2 mm 1 m/S 664 mmHg 97%
    03:00 +20°C° 0.2 mm 1 m/S 664 mmHg 97%
    04:00 +20°C° 0.2 mm 1 m/S 664 mmHg 98%
    05:00 +20°C° 0 mm 1 m/S 665 mmHg 98%
    06:00 +21°C° 0 mm 1 m/S 665 mmHg 97%
    07:00 +21°C° 0 mm 1 m/S 666 mmHg 97%
    08:00 +22°C° 0.1 mm 1 m/S 666 mmHg 94%
    09:00 +23°C° 0.1 mm 1 m/S 666 mmHg 90%
    10:00 +25°C° 0.1 mm 1 m/S 667 mmHg 86%
    11:00 +26°C° 0.8 mm 1 m/S 666 mmHg 82%
    12:00 +27°C° 0.8 mm 2 m/S 666 mmHg 78%
    13:00 +28°C° 0.8 mm 2 m/S 665 mmHg 74%
    14:00 +27°C° 1.6 mm 2 m/S 665 mmHg 78%
    15:00 +27°C° 1.6 mm 2 m/S 664 mmHg 82%
    16:00 +26°C° 1.6 mm 2 m/S 664 mmHg 86%
    17:00 +25°C° 0.5 mm 2 m/S 664 mmHg 88%
    18:00 +23°C° 0.5 mm 2 m/S 664 mmHg 91%
    19:00 +21°C° 0.5 mm 2 m/S 665 mmHg 93%
    20:00 +20°C° 0 mm 2 m/S 665 mmHg 94%
    21:00 +21°C° 0 mm 1 m/S 665 mmHg 95%
    22:00 +21°C° 0 mm 1 m/S 665 mmHg 97%
    23:00 +21°C° 0.1 mm 1 m/S 665 mmHg 97%
    Mehr zeigen